contact:dominique.lefevre@mio.osupytheas.fr, maurice.libes@osupytheas.fr, didier.mallarino@osupytheas.fr
Project:EMSO http://www.emso-fr.org/EMSO-France
Depth: 2436.0 m
Title:EMSO Ligure Ouest : Data MII capteur AQUADOPP
Date,Latitude,Longitude,X_East,Y_North,Z_Up,Amplitude_X,Amplitude_Y,Amplitude_Z,Batterie,SoundSpeed,Heading,Pitch,Roll,Pressure,TIS,Speed,Direction
, degrees North, degrees East, m.s-1, m.s-1,m.s-1, 1, 1, 1, Volt, m.s-1, degree, degree, degree, dbar, degree_C, m.s-1, degree
2020-02-27T00:04:03,42.805,6.029,-0.048,0.035,-0.024,103.0,109.0,103.0,13.3,1505.3,325.8,-0.7,1.8,2470.299,13.31,0.059,306.1
2020-02-27T00:07:03,42.805,6.029,-0.038,0.015,-0.056,105.0,108.0,102.0,13.3,1505.3,323.4,-0.7,1.8,2470.244,13.31,0.04,291.5
2020-02-27T00:10:03,42.805,6.029,-0.025,0.029,-0.054,104.0,109.0,101.0,13.3,1505.3,326.7,-0.7,1.8,2470.231,13.32,0.038,319.2
2020-02-27T00:13:03,42.805,6.029,-0.036,0.045,-0.048,105.0,109.0,100.0,13.3,1505.3,326.8,-0.7,1.8,2470.209,13.32,0.057,321.3
2020-02-27T00:16:03,42.805,6.029,-0.018,0.038,-0.037,104.0,108.0,102.0,13.3,1505.3,325.2,-0.7,1.9,2470.19,13.32,0.042,334.7
2020-02-27T00:19:03,42.805,6.029,-0.055,0.045,-0.023,103.0,110.0,102.0,13.4,1505.3,324.1,-0.8,1.8,2470.261,13.33,0.071,309.3
2020-02-27T00:22:03,42.805,6.029,-0.03,0.032,-0.048,103.0,108.0,102.0,13.4,1505.3,327.0,-0.7,1.8,2470.199,13.33,0.043,316.9
2020-02-27T00:25:03,42.805,6.029,-0.045,0.051,-0.065,105.0,109.0,101.0,13.4,1505.3,324.8,-0.7,1.8,2470.203,13.33,0.068,318.6
2020-02-27T00:28:03,42.805,6.029,-0.033,0.013,-0.053,105.0,108.0,101.0,13.4,1505.3,326.5,-0.7,1.8,2470.199,13.33,0.035,291.5
2020-02-27T00:31:03,42.805,6.029,-0.035,0.021,-0.046,104.0,110.0,102.0,13.4,1505.3,327.8,-0.7,1.8,2470.189,13.33,0.04,301.0
2020-02-27T00:34:03,42.805,6.029,-0.039,0.029,-0.043,105.0,109.0,101.0,13.3,1505.3,327.2,-0.7,1.9,2470.173,13.33,0.048,306.6
2020-02-27T00:37:03,42.805,6.029,-0.022,0.036,-0.073,106.0,110.0,101.0,13.4,1505.3,327.6,-0.7,1.8,2470.178,13.33,0.042,328.6
2020-02-27T00:40:03,42.805,6.029,-0.026,0.057,-0.027,105.0,111.0,102.0,13.4,1505.3,324.8,-0.7,1.8,2470.164,13.33,0.062,335.5
2020-02-27T00:43:03,42.805,6.029,-0.038,0.036,-0.042,104.0,109.0,101.0,13.4,1505.3,325.4,-0.7,1.8,2470.215,13.33,0.052,313.5
2020-02-27T00:46:03,42.805,6.029,-0.024,0.052,-0.013,105.0,110.0,101.0,13.3,1505.3,323.9,-0.7,1.8,2470.182,13.33,0.057,335.2
2020-02-27T00:49:03,42.805,6.029,-0.039,0.049,-0.039,104.0,109.0,101.0,13.4,1505.3,324.2,-0.7,1.8,2470.152,13.33,0.062,321.5
2020-02-27T00:52:03,42.805,6.029,-0.024,0.038,-0.007,104.0,109.0,102.0,13.4,1505.3,323.5,-0.7,1.8,2470.171,13.33,0.044,327.7
2020-02-27T00:55:03,42.805,6.029,-0.038,0.062,-0.009,104.0,111.0,101.0,13.4,1505.3,326.1,-0.7,1.8,2470.191,13.33,0.072,328.5
2020-02-27T00:58:03,42.805,6.029,-0.029,0.043,-0.038,104.0,111.0,101.0,13.4,1505.3,327.9,-0.7,1.8,2470.183,13.33,0.051,326.0
2020-02-27T01:04:03,42.805,6.029,-0.041,0.035,-0.065,105.0,112.0,102.0,13.4,1505.3,328.6,-0.7,1.8,2470.189,13.31,0.053,310.5
2020-02-27T01:07:03,42.805,6.029,-0.05,0.025,-0.042,106.0,109.0,101.0,13.3,1505.3,326.4,-0.7,1.9,2470.218,13.31,0.055,296.6
2020-02-27T01:10:03,42.805,6.029,-0.043,0.059,-0.044,105.0,109.0,101.0,13.4,1505.3,326.5,-0.7,1.8,2470.186,13.32,0.073,323.9
2020-02-27T01:13:03,42.805,6.029,-0.031,0.023,-0.039,104.0,110.0,101.0,13.4,1505.3,325.1,-0.7,1.8,2470.17,13.32,0.038,306.6
2020-02-27T01:16:03,42.805,6.029,-0.062,0.046,-0.014,103.0,111.0,102.0,13.4,1505.3,323.0,-0.7,1.8,2470.225,13.32,0.077,306.6
2020-02-27T01:19:03,42.805,6.029,-0.023,0.046,-0.021,105.0,110.0,100.0,13.4,1505.3,327.9,-0.7,1.9,2470.194,13.32,0.051,333.4
2020-02-27T01:22:03,42.805,6.029,-0.036,0.025,-0.074,104.0,110.0,103.0,13.4,1505.3,326.3,-0.7,1.8,2470.164,13.33,0.043,304.8
2020-02-27T01:25:03,42.805,6.029,-0.059,0.045,-0.066,105.0,108.0,102.0,13.4,1505.3,325.9,-0.7,1.8,2470.168,13.33,0.074,307.3
2020-02-27T01:28:03,42.805,6.029,-0.051,0.038,-0.057,105.0,110.0,102.0,13.3,1505.3,324.1,-0.7,1.8,2470.169,13.33,0.063,306.7
2020-02-27T01:31:03,42.805,6.029,-0.033,0.04,-0.035,106.0,111.0,102.0,13.4,1505.3,325.1,-0.7,1.8,2470.141,13.33,0.051,320.5
2020-02-27T01:34:03,42.805,6.029,-0.035,0.047,0.008,104.0,113.0,101.0,13.4,1505.3,326.5,-0.7,1.8,2470.173,13.33,0.058,323.3
2020-02-27T01:37:03,42.805,6.029,-0.051,0.039,-0.009,104.0,111.0,103.0,13.4,1505.3,325.6,-0.7,1.9,2470.16,13.33,0.064,307.4
2020-02-27T01:40:03,42.805,6.029,-0.045,0.054,-0.048,105.0,111.0,101.0,13.4,1505.3,323.8,-0.7,1.9,2470.153,13.33,0.07,320.2
2020-02-27T01:43:03,42.805,6.029,-0.038,0.037,-0.021,105.0,111.0,102.0,13.3,1505.3,328.4,-0.7,1.8,2470.128,13.33,0.053,314.2
2020-02-27T01:46:03,42.805,6.029,-0.038,0.045,0.002,105.0,110.0,101.0,13.4,1505.3,324.6,-0.8,1.8,2470.125,13.33,0.058,319.8
2020-02-27T01:49:03,42.805,6.029,-0.024,0.065,-0.018,104.0,111.0,101.0,13.4,1505.3,324.0,-0.7,1.8,2470.159,13.33,0.069,339.7
2020-02-27T01:52:03,42.805,6.029,-0.048,0.048,-0.028,102.0,112.0,101.0,13.4,1505.3,323.0,-0.7,1.8,2470.168,13.33,0.067,315.0
2020-02-27T01:55:03,42.805,6.029,-0.032,0.021,-0.022,104.0,111.0,102.0,13.4,1505.3,326.7,-0.7,1.8,2470.17,13.33,0.038,303.3
2020-02-27T01:58:03,42.805,6.029,-0.059,0.041,-0.043,104.0,112.0,101.0,13.4,1505.3,326.5,-0.8,1.8,2470.136,13.33,0.071,304.8
2020-02-27T02:04:03,42.805,6.029,-0.056,0.047,-0.039,104.0,111.0,101.0,13.4,1505.3,328.3,-0.7,1.8,2470.194,13.31,0.073,310.0
2020-02-27T02:07:03,42.805,6.029,-0.047,0.047,-0.027,106.0,110.0,101.0,13.4,1505.3,324.3,-0.7,1.8,2470.168,13.31,0.066,315.0
2020-02-27T02:10:03,42.805,6.029,-0.008,0.051,0.0,104.0,110.0,103.0,13.3,1505.3,323.7,-0.7,1.8,2470.202,13.32,0.051,351.1
2020-02-27T02:13:03,42.805,6.029,-0.066,0.046,-0.053,104.0,110.0,103.0,13.4,1505.3,325.1,-0.7,1.8,2470.127,13.32,0.08,304.9
2020-02-27T02:16:03,42.805,6.029,-0.036,0.052,-0.043,104.0,111.0,102.0,13.4,1505.3,328.1,-0.7,1.8,2470.116,13.32,0.063,325.3
2020-02-27T02:19:03,42.805,6.029,-0.043,0.047,-0.038,104.0,112.0,102.0,13.4,1505.3,325.8,-0.7,1.9,2470.144,13.32,0.063,317.5
2020-02-27T02:22:03,42.805,6.029,-0.05,0.033,-0.036,105.0,111.0,101.0,13.4,1505.3,323.2,-0.8,1.8,2470.131,13.32,0.059,303.4
2020-02-27T02:25:03,42.805,6.029,-0.028,0.027,-0.037,106.0,111.0,103.0,13.4,1505.3,325.6,-0.7,1.8,2470.115,13.33,0.038,314.0
2020-02-27T02:28:03,42.805,6.029,-0.011,0.046,-0.033,104.0,110.0,102.0,13.4,1505.3,324.1,-0.7,1.8,2470.135,13.33,0.047,346.6
2020-02-27T02:31:03,42.805,6.029,-0.062,0.038,-0.036,104.0,110.0,101.0,13.3,1505.3,324.3,-0.7,1.8,2470.138,13.33,0.072,301.5
2020-02-27T02:34:03,42.805,6.029,-0.022,0.053,-0.074,105.0,110.0,101.0,13.3,1505.3,326.2,-0.7,1.8,2470.152,13.33,0.057,337.5
2020-02-27T02:37:03,42.805,6.029,-0.052,0.033,-0.043,103.0,111.0,101.0,13.4,1505.3,326.6,-0.7,1.8,2470.143,13.33,0.061,302.4
2020-02-27T02:40:03,42.805,6.029,-0.041,0.054,-0.048,103.0,111.0,102.0,13.4,1505.3,325.1,-0.7,1.9,2470.105,13.33,0.067,322.8
2020-02-27T02:43:03,42.805,6.029,-0.036,0.059,-0.026,105.0,111.0,101.0,13.4,1505.3,325.8,-0.7,1.8,2470.127,13.33,0.069,328.6
2020-02-27T02:46:03,42.805,6.029,-0.04,0.023,-0.026,103.0,112.0,101.0,13.4,1505.3,324.7,-0.7,1.8,2470.075,13.33,0.046,299.9
2020-02-27T02:49:03,42.805,6.029,-0.058,0.046,-0.023,105.0,111.0,102.0,13.4,1505.3,323.4,-0.7,1.8,2470.136,13.33,0.074,308.4
2020-02-27T02:52:03,42.805,6.029,-0.035,0.038,-0.046,106.0,110.0,103.0,13.3,1505.3,328.0,-0.7,1.8,2470.134,13.33,0.051,317.4
2020-02-27T02:55:03,42.805,6.029,-0.048,0.053,-0.035,105.0,110.0,102.0,13.4,1505.3,326.7,-0.7,1.8,2470.127,13.33,0.071,317.8
2020-02-27T02:58:03,42.805,6.029,-0.035,0.051,-0.027,104.0,110.0,102.0,13.4,1505.3,326.0,-0.7,1.9,2470.117,13.33,0.061,325.5
2020-02-27T03:04:03,42.805,6.029,-0.035,0.042,-0.07,104.0,112.0,101.0,13.4,1505.3,325.5,-0.7,1.8,2470.15,13.31,0.054,320.2
2020-02-27T03:07:03,42.805,6.029,-0.028,0.036,-0.03,104.0,112.0,101.0,13.3,1505.3,327.2,-0.7,1.8,2470.183,13.31,0.045,322.1
2020-02-27T03:10:03,42.805,6.029,-0.047,0.035,-0.039,105.0,111.0,102.0,13.4,1505.3,325.2,-0.7,1.9,2470.127,13.32,0.058,306.7
2020-02-27T03:13:03,42.805,6.029,-0.023,0.063,-0.029,104.0,110.0,100.0,13.3,1505.3,323.9,-0.7,1.8,2470.138,13.32,0.067,339.9
2020-02-27T03:16:03,42.805,6.029,-0.054,0.062,-0.013,104.0,112.0,101.0,13.4,1505.3,327.9,-0.7,1.9,2470.113,13.32,0.082,318.9
2020-02-27T03:19:03,42.805,6.029,-0.009,0.027,-0.039,103.0,111.0,101.0,13.3,1505.3,327.1,-0.7,1.8,2470.14,13.32,0.028,341.6
2020-02-27T03:22:03,42.805,6.029,-0.02,0.048,-0.051,105.0,112.0,102.0,13.4,1505.3,328.0,-0.7,1.8,2470.096,13.32,0.052,337.4
2020-02-27T03:25:03,42.805,6.029,-0.06,0.037,-0.036,106.0,111.0,101.0,13.4,1505.3,326.0,-0.7,1.8,2470.15,13.33,0.07,301.7
2020-02-27T03:28:03,42.805,6.029,-0.054,0.043,-0.011,103.0,112.0,102.0,13.3,1505.3,325.3,-0.7,1.8,2470.084,13.33,0.069,308.5
2020-02-27T03:31:03,42.805,6.029,-0.011,0.05,-0.041,104.0,110.0,101.0,13.3,1505.3,328.4,-0.7,1.8,2470.116,13.33,0.051,347.6
2020-02-27T03:34:03,42.805,6.029,-0.032,0.041,-0.056,104.0,113.0,102.0,13.4,1505.3,326.6,-0.7,1.8,2470.146,13.33,0.052,322.0
2020-02-27T03:37:03,42.805,6.029,-0.014,0.043,0.005,103.0,111.0,101.0,13.3,1505.3,328.4,-0.7,1.8,2470.092,13.33,0.045,342.0
2020-02-27T03:40:03,42.805,6.029,-0.045,0.039,-0.047,106.0,110.0,102.0,13.4,1505.3,324.0,-0.7,1.8,2470.104,13.33,0.059,310.9
2020-02-27T03:43:03,42.805,6.029,-0.038,0.057,-0.038,104.0,112.0,102.0,13.4,1505.3,324.4,-0.7,1.8,2470.136,13.33,0.068,326.3
2020-02-27T03:46:03,42.805,6.029,-0.043,0.051,-0.027,104.0,111.0,100.0,13.4,1505.3,328.1,-0.7,1.9,2470.124,13.33,0.066,319.9
2020-02-27T03:49:03,42.805,6.029,-0.058,0.046,-0.065,102.0,112.0,101.0,13.4,1505.3,325.6,-0.7,1.8,2470.153,13.33,0.074,308.4
2020-02-27T03:52:03,42.805,6.029,-0.024,0.022,-0.039,104.0,111.0,101.0,13.3,1505.3,324.6,-0.7,1.8,2470.147,13.33,0.032,312.5
2020-02-27T03:55:03,42.805,6.029,-0.05,0.046,-0.019,104.0,112.0,101.0,13.4,1505.3,328.4,-0.6,1.8,2470.108,13.33,0.067,312.6
2020-02-27T03:58:03,42.805,6.029,-0.062,0.041,-0.049,104.0,112.0,101.0,13.3,1505.3,324.1,-0.7,1.8,2470.134,13.33,0.074,303.5
2020-02-27T04:04:03,42.805,6.029,-0.026,0.053,-0.043,105.0,112.0,101.0,13.4,1505.3,324.5,-0.8,1.8,2470.186,13.31,0.059,333.9
2020-02-27T04:07:03,42.805,6.029,-0.032,0.059,-0.027,105.0,112.0,101.0,13.4,1505.3,324.6,-0.8,1.9,2470.18,13.31,0.067,331.5
2020-02-27T04:10:03,42.805,6.029,-0.02,0.051,-0.015,104.0,114.0,101.0,13.4,1505.3,327.6,-0.7,1.8,2470.166,13.32,0.054,338.6
2020-02-27T04:13:03,42.805,6.029,-0.042,0.049,-0.072,105.0,111.0,101.0,13.4,1505.3,327.4,-0.7,1.8,2470.126,13.32,0.064,319.4
2020-02-27T04:16:03,42.805,6.029,-0.045,0.044,-0.031,104.0,112.0,100.0,13.4,1505.3,326.2,-0.7,1.8,2470.119,13.32,0.062,314.4
2020-02-27T04:19:03,42.805,6.029,-0.009,0.057,-0.002,105.0,113.0,102.0,13.4,1505.3,327.0,-0.7,1.8,2470.153,13.33,0.057,351.0
2020-02-27T04:22:03,42.805,6.029,-0.03,0.033,-0.063,104.0,113.0,101.0,13.4,1505.3,323.7,-0.7,1.8,2470.157,13.33,0.044,317.7
2020-02-27T04:25:03,42.805,6.029,-0.048,0.059,-0.006,104.0,111.0,101.0,13.4,1505.3,327.0,-0.7,1.9,2470.143,13.33,0.076,320.9
2020-02-27T04:28:03,42.805,6.029,-0.04,0.06,-0.024,104.0,113.0,101.0,13.4,1505.3,328.0,-0.7,1.8,2470.135,13.33,0.072,326.3
2020-02-27T04:31:03,42.805,6.029,-0.023,0.047,-0.008,104.0,110.0,101.0,13.4,1505.3,327.4,-0.7,1.8,2470.162,13.33,0.052,333.9
2020-02-27T04:34:03,42.805,6.029,-0.048,0.062,-0.083,104.0,113.0,101.0,13.4,1505.3,326.4,-0.7,1.8,2470.12,13.33,0.078,322.3
2020-02-27T04:37:03,42.805,6.029,-0.032,0.038,-0.033,104.0,114.0,100.0,13.4,1505.3,327.9,-0.7,1.9,2470.115,13.33,0.049,319.9
2020-02-27T04:40:03,42.805,6.029,-0.025,0.055,-0.03,104.0,114.0,101.0,13.4,1505.3,326.9,-0.7,1.8,2470.166,13.33,0.06,335.6
2020-02-27T04:43:03,42.805,6.029,-0.035,0.052,-0.031,104.0,112.0,102.0,13.3,1505.3,326.5,-0.7,1.8,2470.158,13.33,0.062,326.1
2020-02-27T04:46:03,42.805,6.029,-0.021,0.048,-0.035,105.0,111.0,101.0,13.4,1505.3,323.4,-0.7,1.8,2470.12,13.33,0.052,336.4
2020-02-27T04:49:03,42.805,6.029,-0.024,0.057,-0.049,105.0,112.0,102.0,13.4,1505.3,326.0,-0.7,1.8,2470.132,13.33,0.061,337.2
2020-02-27T04:52:03,42.805,6.029,-0.009,0.041,-0.042,104.0,111.0,101.0,13.4,1505.3,323.6,-0.7,1.8,2470.152,13.33,0.041,347.6
2020-02-27T04:55:03,42.805,6.029,-0.034,0.045,-0.044,103.0,112.0,102.0,13.4,1505.3,326.6,-0.7,1.8,2470.149,13.33,0.056,322.9
2020-02-27T04:58:03,42.805,6.029,-0.054,0.044,-0.067,103.0,113.0,102.0,13.4,1505.3,324.8,-0.7,1.9,2470.108,13.33,0.069,309.2
2020-02-27T05:04:03,42.805,6.029,-0.034,0.047,-0.049,104.0,114.0,101.0,13.4,1505.3,324.6,-0.7,1.8,2470.186,13.31,0.058,324.1
2020-02-27T05:07:03,42.805,6.029,-0.021,0.026,-0.031,104.0,112.0,102.0,13.4,1505.3,323.5,-0.7,1.8,2470.173,13.31,0.033,321.1
2020-02-27T05:10:03,42.805,6.029,-0.026,0.036,-0.001,104.0,112.0,101.0,13.4,1505.3,327.6,-0.7,1.9,2470.157,13.32,0.044,324.2
2020-02-27T05:13:03,42.805,6.029,-0.029,0.042,-0.036,104.0,113.0,101.0,13.3,1505.3,324.6,-0.7,1.8,2470.171,13.32,0.051,325.4
2020-02-27T05:16:03,42.805,6.029,-0.045,0.053,-0.053,103.0,113.0,102.0,13.3,1505.3,324.5,-0.7,1.8,2470.172,13.32,0.069,319.7
2020-02-27T05:19:03,42.805,6.029,-0.048,0.05,-0.018,104.0,111.0,101.0,13.4,1505.3,325.5,-0.7,1.8,2470.191,13.33,0.069,316.2
2020-02-27T05:22:03,42.805,6.029,0.002,0.056,-0.039,104.0,112.0,101.0,13.4,1505.3,323.8,-0.7,1.8,2470.159,13.33,0.056,2.0
2020-02-27T05:25:03,42.805,6.029,-0.015,0.045,-0.023,104.0,112.0,102.0,13.4,1505.3,325.7,-0.7,1.8,2470.168,13.33,0.047,341.6
2020-02-27T05:28:03,42.805,6.029,-0.032,0.054,-0.024,104.0,111.0,102.0,13.3,1505.3,326.7,-0.7,1.8,2470.147,13.33,0.062,329.3
2020-02-27T05:31:03,42.805,6.029,-0.007,0.042,-0.021,105.0,111.0,102.0,13.3,1505.3,327.8,-0.7,1.8,2470.165,13.33,0.042,350.5
2020-02-27T05:34:03,42.805,6.029,-0.039,0.045,-0.009,104.0,112.0,101.0,13.4,1505.3,324.2,-0.7,1.8,2470.16,13.33,0.059,319.1
2020-02-27T05:37:03,42.805,6.029,-0.048,0.042,-0.035,104.0,113.0,101.0,13.4,1505.3,324.1,-0.7,1.8,2470.155,13.33,0.063,311.2
2020-02-27T05:40:03,42.805,6.029,-0.012,0.032,-0.032,105.0,111.0,102.0,13.4,1505.3,324.9,-0.7,1.8,2470.132,13.33,0.034,339.4
2020-02-27T05:43:03,42.805,6.029,-0.025,0.056,-0.042,103.0,111.0,102.0,13.4,1505.3,323.3,-0.7,1.8,2470.164,13.33,0.061,335.9
2020-02-27T05:46:03,42.805,6.029,-0.025,0.054,-0.038,103.0,114.0,102.0,13.3,1505.3,328.1,-0.7,1.8,2470.203,13.33,0.059,335.2
2020-02-27T05:49:03,42.805,6.029,-0.016,0.038,-0.027,104.0,112.0,102.0,13.4,1505.3,325.0,-0.7,1.9,2470.193,13.33,0.041,337.2
2020-02-27T05:52:03,42.805,6.029,-0.051,0.039,-0.048,104.0,112.0,102.0,13.4,1505.3,327.8,-0.7,1.9,2470.191,13.33,0.064,307.4
2020-02-27T05:55:03,42.805,6.029,-0.027,0.026,-0.031,104.0,113.0,102.0,13.3,1505.3,326.8,-0.7,1.9,2470.23,13.33,0.037,313.9
2020-02-27T05:58:03,42.805,6.029,-0.035,0.048,-0.022,105.0,111.0,101.0,13.4,1505.3,327.9,-0.7,1.8,2470.142,13.33,0.059,323.9
2020-02-27T06:04:03,42.805,6.029,-0.026,0.035,-0.032,104.0,111.0,101.0,13.3,1505.3,323.4,-0.7,1.8,2470.203,13.31,0.043,323.4
2020-02-27T06:07:03,42.805,6.029,-0.015,0.049,-0.031,105.0,111.0,101.0,13.4,1505.3,328.4,-0.7,1.8,2470.23,13.31,0.051,343.0
2020-02-27T06:10:03,42.805,6.029,-0.018,0.04,-0.045,105.0,111.0,101.0,13.4,1505.3,325.7,-0.7,1.8,2470.229,13.32,0.043,335.8
2020-02-27T06:13:03,42.805,6.029,-0.015,0.057,0.004,103.0,113.0,101.0,13.3,1505.3,328.3,-0.7,1.8,2470.196,13.32,0.058,345.3
2020-02-27T06:16:03,42.805,6.029,0.015,0.052,0.02,106.0,111.0,101.0,13.4,1505.3,326.3,-0.6,1.8,2470.197,13.33,0.054,16.1
2020-02-27T06:19:03,42.805,6.029,-0.031,0.046,-0.043,104.0,111.0,102.0,13.3,1505.3,326.9,-0.7,1.8,2470.232,13.33,0.055,326.0
2020-02-27T06:22:03,42.805,6.029,-0.04,0.057,-0.033,104.0,114.0,101.0,13.4,1505.3,323.7,-0.7,1.8,2470.211,13.33,0.069,324.9
2020-02-27T06:28:02,42.805,6.029,-0.021,0.045,-0.055,105.0,111.0,103.0,13.4,1505.3,324.3,-0.7,1.8,2470.277,13.31,0.049,335.0
2020-02-27T06:31:03,42.805,6.029,-0.034,0.056,-0.032,106.0,112.0,100.0,13.4,1505.3,324.6,-0.7,1.8,2470.253,13.31,0.065,328.7
2020-02-27T06:34:03,42.805,6.029,-0.015,0.058,-0.004,104.0,112.0,101.0,13.4,1505.3,325.3,-0.7,1.9,2470.252,13.32,0.059,345.5
2020-02-27T06:37:03,42.805,6.029,-0.035,0.056,-0.036,104.0,113.0,101.0,13.4,1505.3,326.8,-0.7,1.8,2470.304,13.32,0.066,328.0
2020-02-27T06:40:03,42.805,6.029,-0.005,0.046,-0.028,103.0,113.0,103.0,13.4,1505.3,327.0,-0.7,1.8,2470.264,13.33,0.046,353.8
2020-02-27T06:43:03,42.805,6.029,-0.018,0.046,-0.048,105.0,110.0,101.0,13.3,1505.3,323.0,-0.7,1.8,2470.242,13.33,0.049,338.6
2020-02-27T06:46:03,42.805,6.029,-0.039,0.04,-0.028,105.0,111.0,101.0,13.3,1505.3,326.2,-0.7,1.9,2470.278,13.33,0.055,315.7
2020-02-27T06:49:03,42.805,6.029,-0.023,0.048,-0.045,104.0,112.0,102.0,13.4,1505.3,328.5,-0.7,1.9,2470.274,13.33,0.053,334.4
2020-02-27T06:52:03,42.805,6.029,-0.004,0.026,-0.013,104.0,111.0,101.0,13.4,1505.3,323.8,-0.7,1.8,2470.26,13.33,0.026,351.3
2020-02-27T06:55:03,42.805,6.029,-0.044,0.046,-0.034,104.0,111.0,101.0,13.3,1505.3,324.3,-0.7,1.8,2470.235,13.33,0.063,316.3
2020-02-27T06:58:03,42.805,6.029,-0.063,0.054,-0.026,104.0,110.0,102.0,13.4,1505.3,324.9,-0.7,1.8,2470.249,13.33,0.082,310.6
2020-02-27T07:04:03,42.805,6.029,-0.07,0.03,-0.072,104.0,113.0,101.0,13.4,1505.3,324.4,-0.7,1.8,2470.32,13.31,0.076,293.2
2020-02-27T07:07:03,42.805,6.029,-0.019,0.049,-0.033,103.0,113.0,101.0,13.4,1505.3,328.1,-0.7,1.8,2470.283,13.31,0.052,338.8
2020-02-27T07:10:03,42.805,6.029,-0.033,0.047,-0.024,106.0,113.0,102.0,13.3,1505.3,324.5,-0.7,1.9,2470.269,13.32,0.057,324.9
2020-02-27T07:13:03,42.805,6.029,-0.05,0.039,-0.036,104.0,114.0,102.0,13.4,1505.3,323.7,-0.7,1.8,2470.284,13.32,0.063,308.0
2020-02-27T07:16:03,42.805,6.029,-0.014,0.062,-0.012,105.0,112.0,100.0,13.3,1505.3,323.5,-0.7,1.8,2470.243,13.33,0.063,347.3
2020-02-27T07:19:03,42.805,6.029,-0.05,0.036,-0.042,103.0,113.0,102.0,13.4,1505.3,324.8,-0.7,1.8,2470.279,13.33,0.061,305.8
2020-02-27T07:22:03,42.805,6.029,-0.055,0.054,-0.069,105.0,113.0,101.0,13.4,1505.3,324.8,-0.7,1.9,2470.271,13.33,0.077,314.5
2020-02-27T07:25:03,42.805,6.029,-0.013,0.035,-0.059,104.0,111.0,103.0,13.4,1505.3,324.2,-0.7,1.8,2470.31,13.33,0.037,339.6
2020-02-27T07:31:03,42.805,6.029,0.0,0.043,-0.01,103.0,112.0,101.0,13.4,1505.3,324.7,-0.7,1.8,2470.343,13.31,0.043,0.0
2020-02-27T07:34:03,42.805,6.029,-0.011,0.026,-0.063,105.0,111.0,102.0,13.4,1505.3,326.5,-0.7,1.8,2470.344,13.31,0.028,337.1
2020-02-27T07:37:03,42.805,6.029,-0.038,0.042,-0.025,104.0,110.0,102.0,13.3,1505.3,323.2,-0.7,1.9,2470.31,13.32,0.056,317.9
2020-02-27T07:40:03,42.805,6.029,-0.034,0.048,-0.042,105.0,112.0,100.0,13.4,1505.3,324.1,-0.7,1.8,2470.31,13.32,0.058,324.7
2020-02-27T07:43:03,42.805,6.029,-0.03,0.047,-0.003,106.0,111.0,103.0,13.3,1505.3,324.4,-0.7,1.9,2470.298,13.33,0.055,327.4
2020-02-27T07:46:03,42.805,6.029,-0.02,0.042,-0.044,104.0,110.0,102.0,13.4,1505.3,326.5,-0.7,1.8,2470.322,13.33,0.046,334.5
2020-02-27T07:49:03,42.805,6.029,-0.03,0.048,-0.046,104.0,112.0,102.0,13.4,1505.3,323.4,-0.7,1.8,2470.29,13.33,0.056,328.0
2020-02-27T07:52:03,42.805,6.029,-0.042,0.043,-0.037,105.0,112.0,102.0,13.4,1505.3,323.7,-0.7,1.8,2470.287,13.33,0.06,315.7
2020-02-27T07:55:03,42.805,6.029,-0.021,0.047,0.008,102.0,111.0,102.0,13.4,1505.3,327.0,-0.7,1.8,2470.328,13.33,0.051,335.9
2020-02-27T07:58:03,42.805,6.029,-0.043,0.039,-0.02,104.0,113.0,101.0,13.3,1505.3,326.9,-0.7,1.8,2470.293,13.33,0.058,312.2
2020-02-27T08:04:03,42.805,6.029,-0.024,0.053,-0.009,105.0,113.0,102.0,13.4,1505.3,323.6,-0.7,1.9,2470.36,13.31,0.058,335.6
2020-02-27T08:07:03,42.805,6.029,-0.031,0.032,0.0,105.0,112.0,102.0,13.3,1505.3,328.6,-0.7,1.8,2470.378,13.32,0.044,315.9
2020-02-27T08:10:03,42.805,6.029,-0.026,0.054,-0.009,104.0,112.0,102.0,13.4,1505.3,324.9,-0.7,1.8,2470.341,13.32,0.059,334.3
2020-02-27T08:13:03,42.805,6.029,-0.028,0.04,-0.026,103.0,113.0,102.0,13.4,1505.3,323.5,-0.7,1.9,2470.331,13.33,0.048,325.0
2020-02-27T08:16:03,42.805,6.029,-0.027,0.049,-0.035,104.0,112.0,100.0,13.4,1505.3,327.1,-0.7,1.8,2470.317,13.33,0.055,331.1
2020-02-27T08:19:03,42.805,6.029,-0.035,0.026,-0.03,104.0,110.0,101.0,13.3,1505.3,325.2,-0.7,1.9,2470.334,13.33,0.043,306.6
2020-02-27T08:22:03,42.805,6.029,-0.022,0.048,-0.024,104.0,112.0,102.0,13.4,1505.3,325.7,-0.7,1.8,2470.331,13.33,0.052,335.4
2020-02-27T08:25:03,42.805,6.029,-0.039,0.062,-0.04,103.0,113.0,102.0,13.4,1505.3,327.4,-0.7,1.8,2470.289,13.33,0.073,327.8
2020-02-27T08:28:03,42.805,6.029,-0.029,0.021,-0.004,104.0,112.0,102.0,13.4,1505.3,324.9,-0.7,1.8,2470.327,13.33,0.035,305.9
2020-02-27T08:34:03,42.805,6.029,-0.023,0.036,-0.023,106.0,112.0,101.0,13.4,1505.3,325.8,-0.7,1.8,2470.375,13.31,0.042,327.4
2020-02-27T08:37:03,42.805,6.029,-0.031,0.036,-0.066,105.0,112.0,102.0,13.4,1505.3,327.0,-0.7,1.8,2470.352,13.32,0.047,319.3
2020-02-27T08:40:03,42.805,6.029,-0.055,0.05,-0.028,103.0,112.0,102.0,13.4,1505.3,328.2,-0.7,1.8,2470.328,13.32,0.074,312.3
2020-02-27T08:43:03,42.805,6.029,-0.048,0.042,-0.044,103.0,116.0,101.0,13.4,1505.3,326.5,-0.7,1.9,2470.352,13.32,0.063,311.2
2020-02-27T08:46:03,42.805,6.029,-0.055,0.046,-0.043,103.0,113.0,101.0,13.4,1505.3,324.1,-0.7,1.9,2470.354,13.33,0.071,309.9
2020-02-27T08:49:03,42.805,6.029,-0.037,0.018,-0.034,103.0,113.0,101.0,13.4,1505.3,324.9,-0.7,1.8,2470.389,13.33,0.041,295.9
2020-02-27T08:52:03,42.805,6.029,-0.049,0.037,-0.073,104.0,113.0,100.0,13.3,1505.3,327.5,-0.7,1.8,2470.336,13.33,0.061,307.1
2020-02-27T08:55:03,42.805,6.029,-0.05,0.034,-0.056,104.0,112.0,101.0,13.3,1505.3,325.4,-0.7,1.8,2470.299,13.33,0.06,304.2
2020-02-27T08:58:03,42.805,6.029,-0.011,0.03,-0.045,105.0,112.0,101.0,13.4,1505.3,328.1,-0.7,1.8,2470.341,13.33,0.031,339.9
2020-02-27T09:04:03,42.805,6.029,-0.049,0.047,-0.02,104.0,112.0,101.0,13.4,1505.3,324.8,-0.8,1.8,2470.387,13.31,0.067,313.8
2020-02-27T09:07:03,42.805,6.029,-0.054,0.022,-0.044,103.0,112.0,101.0,13.4,1505.3,327.2,-0.7,1.8,2470.382,13.32,0.058,292.2
2020-02-27T09:10:03,42.805,6.029,-0.025,0.034,0.01,103.0,115.0,100.0,13.3,1505.3,325.0,-0.7,1.8,2470.371,13.32,0.042,323.7
2020-02-27T09:13:03,42.805,6.029,-0.031,0.022,-0.036,102.0,111.0,101.0,13.3,1505.3,322.7,-0.7,1.8,2470.353,13.33,0.038,305.4
2020-02-27T09:16:03,42.805,6.029,-0.039,0.031,-0.024,104.0,111.0,100.0,13.4,1505.3,326.6,-0.7,1.8,2470.357,13.33,0.049,308.5
2020-02-27T09:19:03,42.805,6.029,-0.026,0.028,-0.033,105.0,112.0,100.0,13.4,1505.3,327.9,-0.7,1.8,2470.375,13.33,0.038,317.1
2020-02-27T09:22:03,42.805,6.029,-0.038,0.028,-0.03,104.0,113.0,101.0,13.4,1505.3,323.5,-0.7,1.8,2470.403,13.33,0.047,306.4
2020-02-27T09:25:03,42.805,6.029,-0.025,0.04,-0.026,102.0,112.0,101.0,13.4,1505.3,326.3,-0.7,1.8,2470.37,13.33,0.047,328.0
2020-02-27T09:28:03,42.805,6.029,-0.021,0.029,-0.025,106.0,112.0,100.0,13.4,1505.3,326.9,-0.7,1.8,2470.333,13.33,0.035,324.1
2020-02-27T09:31:03,42.805,6.029,-0.013,0.043,-0.001,103.0,111.0,101.0,13.4,1505.3,324.3,-0.7,1.8,2470.336,13.33,0.044,343.2
2020-02-27T09:34:03,42.805,6.029,-0.025,0.02,-0.034,103.0,112.0,102.0,13.4,1505.3,323.7,-0.7,1.9,2470.361,13.33,0.032,308.7
2020-02-27T09:37:03,42.805,6.029,-0.03,0.039,-0.031,104.0,113.0,100.0,13.4,1505.3,327.9,-0.7,1.8,2470.331,13.33,0.049,322.4
2020-02-27T09:40:03,42.805,6.029,-0.048,0.032,-0.03,104.0,113.0,101.0,13.4,1505.3,327.6,-0.7,1.9,2470.378,13.33,0.057,303.7
2020-02-27T09:43:03,42.805,6.029,-0.014,0.05,-0.01,103.0,112.0,101.0,13.4,1505.3,324.5,-0.7,1.8,2470.365,13.33,0.051,344.4
2020-02-27T09:46:03,42.805,6.029,-0.013,0.055,-0.036,104.0,113.0,101.0,13.4,1505.3,326.6,-0.7,1.8,2470.347,13.33,0.056,346.7
2020-02-27T09:49:03,42.805,6.029,-0.043,0.045,-0.032,104.0,111.0,102.0,13.4,1505.3,323.2,-0.7,1.8,2470.332,13.33,0.062,316.3
2020-02-27T09:52:03,42.805,6.029,-0.027,0.045,-0.055,106.0,111.0,102.0,13.4,1505.3,326.5,-0.7,1.8,2470.331,13.33,0.052,329.0
2020-02-27T09:55:03,42.805,6.029,-0.022,0.035,0.013,105.0,111.0,101.0,13.3,1505.3,328.4,-0.7,1.8,2470.328,13.33,0.041,327.8
2020-02-27T09:58:03,42.805,6.029,-0.026,0.044,-0.022,105.0,113.0,102.0,13.4,1505.3,326.5,-0.7,1.8,2470.311,13.33,0.051,329.4
2020-02-27T10:04:03,42.805,6.029,-0.03,0.037,-0.007,103.0,111.0,101.0,13.3,1505.3,324.2,-0.7,1.8,2470.378,13.31,0.047,321.0